Regional Weather Roundup
Issued by NWS State College, PA

Home | Current Version | Previous Version | Graphics & Text | Print | Product List | Glossary On
Versions: 1 2 3 4 5 6 7 8 9 10 11 12 13 14 15 16 17 18 19 20 21 22 23 24 25 26 27 28 29 30 31 32 33 34 35 36 37 38 39 40 41 42 43 44 45 46 47 48 49 50
000
ASUS41 KCTP 250210
RWRCTP

REGIONAL WEATHER ROUNDUP
NATIONAL WEATHER SERVICE STATE COLLEGE PA
1000 PM EDT WED MAY 24 2017

Note: "fair" indicates few or no clouds below 12,000 feet with no
significant weather and/or obstructions to visibility.

* = STATION THAT DOES NOT REPORT PRECIPITATION /E.G. RAIN...SNOW...ETC/
    THUNDER OR FOG.

PAZ002>004-007>009-013>016-020>023-029>032-250300-
WESTERN PENNSYLVANIA

CITY           SKY/WX    TMP DP  RH WIND       PRES   REMARKS
ERIE           LGT RAIN  62  54  74 SE8G20    29.57S
MEADVILLE      CLOUDY    58  56  93 VRB7      29.58S
FRANKLIN*      CLOUDY    55  52  88 E12       29.61R
NEW CASTLE     LGT RAIN  58  57  97 E8        29.56S
BEAVER COUNTY  NOT AVBL
BUTLER*        CLOUDY    57  54  88 E16       29.56S
PITTSBURGH INT CLOUDY    60  56  86 SE15      29.54R
PITTSBURGH     CLOUDY    59  53  80 SE13      29.55R
INDIANA*       MOCLDY    57  55  94 SE14G22   29.64R
LATROBE        LGT RAIN  57  57 100 E12       29.59R
WASHINGTON CO* CLOUDY    57  54  88 E10       29.56R
$$

PAZ004>006-010>012-017>019-024>028-033>037-041-042-045-046-049>053-250300-
CENTRAL PENNSYLVANIA

CITY           SKY/WX    TMP DP  RH WIND       PRES   REMARKS
BRADFORD       CLOUDY    60  50  69 SE13G26   29.66S
DUBOIS         LGT RAIN  56  52  86 SE14      29.64S
CLEARFIELD     LGT RAIN  58  53  84 SE5       29.68S
JOHNSTOWN      LGT RAIN  54  53  97 SE12G23   29.63F
ALTOONA        LGT RAIN  59  54  83 SE8       29.69F
STATE COLLEGE  NOT AVBL
WILLIAMSPORT   CLOUDY    66  51  58 E14G24    29.71R
SELINSGROVE    CLOUDY    65  51  60 SE12G22   29.74R
FT INDIANTOWN  CLOUDY    64  51  63 SE7       29.75R
CAPITAL CITY   CLOUDY    66  53  63 SE15      29.73S
HARRISBURG     CLOUDY    65  56  72 SE16      29.73R
YORK           CLOUDY    62  55  77 SE12      29.73R
$$

PAZ038>040-043-044-047-048-054-055-060>062-067>071-250300-
EASTERN PENNSYLVANIA

CITY           SKY/WX    TMP DP  RH WIND       PRES   REMARKS
SCRANTON       MOCLDY    63  47  55 VRB3      29.77R
MOUNT POCONO   CLOUDY    55  48  77 SE12      29.80R
ALLENTOWN      CLOUDY    63  47  55 E8        29.78R
QUAKERTOWN*    NOT AVBL
READING        CLOUDY    64  51  62 SE10G18   29.77R
LANCASTER      CLOUDY    63  53  70 SE12      29.76R
COATESVILLE      N/A     61  50  67 SE10G18   29.79R
POTTSTOWN      CLOUDY    60  48  64 VRB5      29.80R
BLUE BELL      CLOUDY    57  50  77 E5        29.82R
DOYLESTOWN     CLOUDY    58  32  37 CALM      29.80R
WILLOW GROVE   NOT AVBL
NORTH PHILA    CLOUDY    60  51  72 E12       29.82R
PHILADELPHIA   CLOUDY    60  51  72 E10       29.81R
$$




USA.gov is the U.S. government's official web portal to all federal, state and local government web resources and services.